Andover, NJ

12:21 AM EST on December 18, 2017 (GMT -0500)
Andover

Weather History for K12N - August, 2013

Change the Weather History Date:

Tuesday, August 6, 2013

  Actual Average (KFWN) Record (KFWN)
Temperature  
Mean Temperature 66 °F -  
Max Temperature 79 °F 82 °F 99 °F (1988)
Min Temperature 53 °F 57 °F 42 °F (1957)
Growing Degree Days 16 (Base 50)    
Moisture  
Dew Point 55 °F    
Average Humidity 72    
Maximum Humidity 96    
Minimum Humidity 43    
Precipitation  
Precipitation 0.00 in - - ()
Sea Level Pressure  
Sea Level Pressure 30.09 in    
Wind  
Wind Speed 1 mph (SSE)    
Max Wind Speed 8 mph    
Max Gust Speed -    
Averages and records for this station are not official NWS values.
T = Trace of Precipitation, MM = Missing Value Source: NWS Daily Summary

Daily Weather History Graph

Daily Weather History Graph

Search for Another Location

Airport or City:

Trip Planner

Search our weather history database for the weather conditions in past years. The results will help you decide how hot, cold, wet, or windy it might be!

Date:

Astronomy

Aug. 06, 2013 Rise Set
Actual Time 5:59 AM EDT 8:08 PM EDT
Civil Twilight 5:29 AM EDT 8:39 PM EDT
Nautical Twilight 4:52 AM EDT 9:16 PM EDT
Astronomical Twilight 4:11 AM EDT 9:57 PM EDT
Moon 5:49 AM EDT (8/6) 7:41 PM EDT (8/6)
Length of Visible Light 15h 09m
Length of Day
14h 08m
Waning Crescent, 0% of the Moon is Illuminated
Aug 6
Waning Crescent
Aug 6
New
Aug 14
First Quarter
Aug 20
Full
Aug 28
Last Quarter

Hourly Weather History & Observations

Time (EDT) Temp. Dew Point Humidity Pressure Visibility Wind Dir Wind Speed Gust Speed Precip Events Conditions
12:54 AM 57.0 °F 54.0 °F 89% 30.06 in - Calm Calm - N/A   Unknown
1:54 AM 55.0 °F 53.1 °F 93% 30.06 in - Calm Calm - N/A   Unknown
2:54 AM 55.0 °F 53.1 °F 93% 30.06 in - Calm Calm - N/A   Unknown
3:54 AM 54.0 °F 52.0 °F 93% 30.07 in - Calm Calm - N/A   Unknown
4:54 AM 53.1 °F 51.1 °F 93% 30.08 in - Calm Calm - N/A   Unknown
5:54 AM 53.1 °F 50.0 °F 89% 30.09 in - Calm Calm - N/A   Unknown
6:54 AM 53.1 °F 52.0 °F 96% 30.10 in - Calm Calm - N/A   Unknown
7:54 AM 57.9 °F 55.0 °F 90% 30.10 in - ENE 3.5 mph - N/A   Unknown
8:54 AM 64.9 °F 55.9 °F 73% 30.10 in - Calm Calm - N/A   Unknown
9:54 AM 70.0 °F 57.0 °F 63% 30.10 in - Calm Calm - N/A   Unknown
10:54 AM 73.9 °F 57.9 °F 57% 30.10 in - Calm Calm - N/A   Unknown
11:54 AM 75.0 °F 52.0 °F 44% 30.11 in - SE 3.5 mph - N/A   Unknown
12:54 PM 77.0 °F 53.1 °F 43% 30.11 in - SW 4.6 mph - N/A   Unknown
1:54 PM 77.0 °F 53.1 °F 43% 30.10 in - Variable 4.6 mph - N/A   Unknown
2:54 PM 77.0 °F 54.0 °F 45% 30.09 in - SSE 8.1 mph - N/A   Unknown
3:54 PM 75.9 °F 54.0 °F 46% 30.08 in - Variable 5.8 mph - N/A   Unknown
4:54 PM 78.1 °F 54.0 °F 43% 30.09 in - Variable 4.6 mph - N/A   Unknown
5:54 PM 77.0 °F 54.0 °F 45% 30.08 in - SW 8.1 mph - N/A   Unknown
6:54 PM 73.0 °F 59.0 °F 61% 30.10 in - Variable 4.6 mph - N/A   Unknown
7:54 PM 70.0 °F 60.1 °F 71% 30.11 in - Calm Calm - N/A   Unknown
8:54 PM 66.9 °F 61.0 °F 81% 30.11 in - Calm Calm - N/A   Unknown
9:54 PM 64.0 °F 61.0 °F 90% 30.12 in - Calm Calm - N/A   Unknown
10:54 PM 64.9 °F 62.1 °F 90% 30.12 in - Calm Calm - N/A   Unknown
11:54 PM 63.0 °F 61.0 °F 93% 30.12 in - Calm Calm - N/A   Unknown